TimeCDT,TemperatureF,Dew PointF,Humidity,Sea Level PressureIn,VisibilityMPH,Wind Direction,Wind SpeedMPH,Gust SpeedMPH,PrecipitationIn,Events,Conditions,WindDirDegrees,DateUTC
12:25 AM,69.8,69.8,100,30.06,8.0,SE,3.5,-,N/A,,Overcast,130,2013-08-05 05:25:00
12:37 AM,69.8,69.8,100,30.06,8.0,SE,4.6,-,N/A,,Overcast,130,2013-08-05 05:37:00
12:53 AM,70.0,69.1,97,30.03,7.0,ESE,3.5,-,N/A,,Overcast,120,2013-08-05 05:53:00
1:53 AM,70.0,69.1,97,30.00,6.0,SE,5.8,-,N/A,,Overcast,140,2013-08-05 06:53:00
2:33 AM,69.8,69.8,100,30.02,7.0,SE,5.8,-,N/A,,Overcast,140,2013-08-05 07:33:00
2:53 AM,70.0,68.0,93,29.98,8.0,SE,5.8,-,N/A,,Overcast,140,2013-08-05 07:53:00
3:04 AM,69.8,68.0,94,30.01,7.0,SSE,5.8,-,N/A,,Overcast,150,2013-08-05 08:04:00
3:14 AM,69.8,68.0,94,30.01,7.0,SSE,4.6,-,N/A,,Overcast,150,2013-08-05 08:14:00
3:53 AM,70.0,68.0,93,29.98,7.0,SSE,4.6,-,N/A,,Overcast,160,2013-08-05 08:53:00
4:19 AM,69.8,68.0,94,30.00,6.0,SSE,5.8,-,N/A,,Overcast,160,2013-08-05 09:19:00
4:53 AM,70.0,69.1,97,29.96,6.0,South,4.6,-,N/A,,Overcast,170,2013-08-05 09:53:00
5:53 AM,70.0,68.0,93,29.95,8.0,SSE,4.6,-,N/A,,Overcast,160,2013-08-05 10:53:00
6:53 AM,70.0,68.0,93,29.94,8.0,SSE,5.8,-,N/A,,Overcast,160,2013-08-05 11:53:00
7:07 AM,69.8,68.0,94,29.97,8.0,SSE,5.8,-,N/A,,Overcast,160,2013-08-05 12:07:00
7:29 AM,69.8,68.0,94,29.97,8.0,SSE,5.8,-,N/A,,Overcast,150,2013-08-05 12:29:00
7:53 AM,70.0,69.1,97,29.93,8.0,SSE,5.8,-,N/A,,Mostly Cloudy,150,2013-08-05 12:53:00
8:17 AM,71.6,69.8,94,29.96,9.0,SE,9.2,-,N/A,,Overcast,140,2013-08-05 13:17:00
8:53 AM,72.0,70.0,93,29.93,8.0,SE,8.1,-,N/A,,Overcast,140,2013-08-05 13:53:00
9:53 AM,73.0,70.0,90,29.91,7.0,South,8.1,-,N/A,,Overcast,180,2013-08-05 14:53:00
10:33 AM,75.2,71.6,89,29.94,7.0,South,5.8,-,N/A,,Overcast,180,2013-08-05 15:33:00
10:53 AM,75.0,71.1,87,29.91,7.0,SSE,4.6,-,N/A,,Overcast,160,2013-08-05 15:53:00
11:29 AM,77.0,71.6,83,29.94,8.0,SSE,3.5,-,N/A,,Overcast,150,2013-08-05 16:29:00
11:53 AM,78.1,71.1,79,29.91,9.0,Calm,Calm,-,N/A,,Overcast,0,2013-08-05 16:53:00
12:53 PM,81.0,72.0,74,29.91,9.0,Calm,Calm,-,N/A,,Overcast,0,2013-08-05 17:53:00
1:53 PM,81.0,71.1,72,29.91,9.0,North,4.6,-,N/A,,Overcast,350,2013-08-05 18:53:00
2:53 PM,82.0,72.0,71,29.90,8.0,North,5.8,-,N/A,,Overcast,10,2013-08-05 19:53:00
3:09 PM,82.4,71.6,70,29.93,8.0,NE,3.5,-,N/A,,Overcast,40,2013-08-05 20:09:00
3:53 PM,82.0,72.0,71,29.88,8.0,NNE,5.8,-,N/A,,Overcast,30,2013-08-05 20:53:00
4:53 PM,84.9,73.0,67,29.83,8.0,East,6.9,-,N/A,,Partly Cloudy,90,2013-08-05 21:53:00
5:53 PM,82.9,72.0,69,29.83,7.0,East,3.5,-,N/A,,Scattered Clouds,100,2013-08-05 22:53:00
6:53 PM,82.9,73.0,72,29.83,8.0,East,5.8,-,N/A,,Scattered Clouds,100,2013-08-05 23:53:00
7:53 PM,81.0,72.0,74,29.82,8.0,Calm,Calm,-,N/A,,Clear,0,2013-08-06 00:53:00
8:53 PM,77.0,73.0,88,29.82,8.0,South,5.8,-,N/A,,Clear,170,2013-08-06 01:53:00
9:53 PM,78.1,73.0,84,29.84,9.0,ENE,5.8,-,N/A,,Clear,60,2013-08-06 02:53:00
10:53 PM,78.1,73.0,84,29.85,8.0,ENE,4.6,-,N/A,,Overcast,70,2013-08-06 03:53:00
11:53 PM,78.1,73.0,84,29.84,8.0,NE,6.9,-,N/A,,Scattered Clouds,50,2013-08-06 04:53:00